This is the latest recevied weather packets stored in our database for station/object K9ZOG. If no packets are shown the sender has not sent any weather packets the latest 10 day(s).
| Time | Temp. | Humidity | Pressure | Rain* | Wind** | Luminosity | Snow |
|---|---|---|---|---|---|---|---|
| 1777984153 | 8.33° C | 63% | 1006.4 hPa | 0 mm | - | 53 W/m² | - |
| 1777983853 | 8.33° C | 63% | 1006.2 hPa | 0 mm | - | 46 W/m² | - |
| 1777983555 | 8.33° C | 62% | 1006.6 hPa | 0 mm | - | 29 W/m² | - |
| 1777983252 | 8.33° C | 64% | 1006.4 hPa | 0 mm | - | 46 W/m² | - |
| 1777982953 | 8.33° C | 66% | 1005.8 hPa | 0 mm | - | 46 W/m² | - |
| 1777982653 | 8.33° C | 68% | 1005.7 hPa | 0 mm | - | 63 W/m² | - |
| 1777982353 | 8.33° C | 70% | 1005.9 hPa | 0 mm | - | 59 W/m² | - |
| 1777982052 | 8.33° C | 71% | 1005.8 hPa | 0 mm | - | 51 W/m² | - |
| 1777981757 | 8.33° C | 73% | 1005.7 hPa | 0 mm | - | 50 W/m² | - |
| 1777981454 | 8.33° C | 74% | 1005.4 hPa | 0 mm | - | 57 W/m² | - |
| 1777981152 | 7.78° C | 75% | 1005.4 hPa | 0 mm | - | 76 W/m² | - |
| 1777980852 | 7.78° C | 77% | 1005.7 hPa | 0 mm | - | 63 W/m² | - |
| 1777980553 | 7.78° C | 78% | 1005.7 hPa | 0 mm | - | 48 W/m² | - |
| 1777980253 | 7.78° C | 80% | 1005.7 hPa | 0 mm | - | 37 W/m² | - |
| 1777979953 | 7.78° C | 81% | 1005.7 hPa | 0 mm | - | 33 W/m² | - |
| 1777979653 | 7.78° C | 82% | 1005.8 hPa | 0 mm | - | 37 W/m² | - |
| 1777979354 | 7.78° C | 82% | 1005.7 hPa | 0 mm | - | 26 W/m² | - |
| 1777979053 | 7.78° C | 82% | 1005.4 hPa | 0 mm | - | 15 W/m² | - |
| 1777978755 | 7.78° C | 83% | 1005.3 hPa | 0 mm | - | 15 W/m² | - |
| 1777978453 | 7.78° C | 83% | 1005.3 hPa | 0 mm | - | 13 W/m² | - |
| 1777978152 | 7.78° C | 84% | 1005.5 hPa | 0 mm | - | 10 W/m² | - |
| 1777977854 | 7.78° C | 84% | 1005.5 hPa | 0 mm | - | 6 W/m² | - |
| 1777977554 | 7.78° C | 83% | 1005.2 hPa | 0 mm | - | 4 W/m² | - |
| 1777977259 | 7.78° C | 83% | 1005.2 hPa | 0 mm | - | 2 W/m² | - |
| 1777976955 | 7.78° C | 82% | 1005 hPa | 0 mm | - | 2 W/m² | - |
* Rain latest hour (hover to see other rain measurements)
** Current wind speed in m/s (hover to see current wind gust speed)